| time (UTC) | temp F | wind direction | speed MPH | gust MPH | rain 1hr in | rain 24hr in | rain mn in | humidity % | barometer mb |
| 20260504150523 | 59 | 260 | 0.0 | 6.0 | 0.00 | 0.00 | 0.00 | 74 | 1014.0 |
| 20260504140547 | 58 | 263 | 0.0 | 0.0 | 0.00 | 0.00 | 0.00 | 77 | 1013.7 |
| 20260504130530 | 57 | 263 | 0.0 | 0.0 | 0.00 | 0.00 | 0.00 | 77 | 1013.4 |
| 20260504110533 | 58 | 271 | 0.0 | 3.0 | 0.00 | 0.00 | 0.00 | 76 | 1013.3 |
| 20260504100522 | 58 | 299 | 1.0 | 7.0 | 0.00 | 0.00 | 0.00 | 75 | 1013.0 |
| 20260504080520 | 59 | 280 | 2.0 | 10.0 | 0.00 | 0.00 | 0.00 | 77 | 1013.7 |
| 20260504050541 | 60 | 247 | 0.0 | 0.0 | 0.00 | 0.00 | 0.00 | 74 | 1013.5 |
| 20260504045014 | 60 | 246 | 0.0 | 0.0 | 0.00 | 0.00 | 0.00 | 74 | 1013.6 |
| 20260504043518 | 60 | 240 | 0.0 | 0.0 | 0.00 | 0.00 | 0.00 | 74 | 1013.4 |
| 20260504042052 | 60 | 238 | 0.0 | 0.0 | 0.00 | 0.00 | 0.00 | 73 | 1013.1 |
| 20260504040555 | 60 | 238 | 0.0 | 0.0 | 0.00 | 0.00 | 0.00 | 73 | 1012.9 |
| 20260504035050 | 61 | 238 | 0.0 | 5.0 | 0.00 | 0.00 | 0.00 | 72 | 1012.9 |
| 20260504033528 | 61 | 237 | 0.0 | 4.0 | 0.00 | 0.00 | 0.00 | 71 | 1013.0 |
| 20260504032025 | 61 | 237 | 2.0 | 7.0 | 0.00 | 0.00 | 0.00 | 71 | 1012.9 |
| 20260504030521 | 61 | 233 | 0.0 | 2.0 | 0.00 | 0.00 | 0.00 | 70 | 1012.7 |
| 20260504025014 | 61 | 248 | 0.0 | 0.0 | 0.00 | 0.00 | 0.00 | 69 | 1012.6 |
| 20260504023533 | 61 | 260 | 0.0 | 5.0 | 0.00 | 0.00 | 0.00 | 69 | 1012.5 |
| 20260504022030 | 62 | 271 | 2.0 | 10.0 | 0.00 | 0.00 | 0.00 | 70 | 1012.5 |
| 20260504020528 | 62 | 261 | 3.0 | 9.0 | 0.00 | 0.00 | 0.00 | 70 | 1012.6 |
| 20260504015026 | 62 | 264 | 1.0 | 8.0 | 0.00 | 0.00 | 0.00 | 70 | 1012.6 |
| 20260504013555 | 62 | 242 | 4.0 | 11.0 | 0.00 | 0.00 | 0.00 | 68 | 1012.4 |
| 20260504012014 | 63 | 261 | 1.0 | 9.0 | 0.00 | 0.00 | 0.00 | 67 | 1012.3 |
| 20260504010516 | 63 | 275 | 3.0 | 12.0 | 0.00 | 0.00 | 0.00 | 67 | 1012.0 |
| 20260504005033 | 63 | 253 | 4.0 | 13.0 | 0.00 | 0.00 | 0.00 | 67 | 1011.8 |
| 20260504003533 | 64 | 258 | 2.0 | 12.0 | 0.00 | 0.00 | 0.00 | 65 | 1011.6 |
| 20260504002015 | 65 | 249 | 1.0 | 9.0 | 0.00 | 0.00 | 0.00 | 63 | 1011.4 |
| 20260504000536 | 66 | 240 | 3.0 | 11.0 | 0.00 | 0.00 | 0.00 | 61 | 1011.4 |
| 20260503235033 | 67 | 229 | 5.0 | 12.0 | 0.00 | 0.00 | 0.00 | 59 | 1011.4 |
| 20260503233534 | 67 | 254 | 4.0 | 9.0 | 0.00 | 0.00 | 0.00 | 59 | 1010.8 |
| 20260503232027 | 68 | 224 | 2.0 | 9.0 | 0.00 | 0.00 | 0.00 | 57 | 1010.9 |
| 20260503230519 | 67 | 252 | 3.0 | 12.0 | 0.00 | 0.00 | 0.00 | 61 | 1011.3 |
| 20260503225017 | 67 | 234 | 0.0 | 10.0 | 0.00 | 0.00 | 0.00 | 60 | 1011.6 |
| 20260503223516 | 67 | 260 | 2.0 | 9.0 | 0.00 | 0.00 | 0.00 | 59 | 1011.6 |
| 20260503222023 | 66 | 294 | 1.0 | 8.0 | 0.00 | 0.00 | 0.00 | 63 | 1011.7 |
| 20260503220521 | 66 | 279 | 2.0 | 12.0 | 0.00 | 0.00 | 0.00 | 64 | 1011.8 |
| 20260503215016 | 66 | 273 | 0.0 | 12.0 | 0.00 | 0.00 | 0.00 | 64 | 1011.9 |
| 20260503213541 | 65 | 264 | 5.0 | 11.0 | 0.00 | 0.00 | 0.00 | 64 | 1011.9 |
| 20260503212016 | 65 | 277 | 0.0 | 11.0 | 0.00 | 0.00 | 0.00 | 65 | 1012.0 |
| 20260503210516 | 66 | 254 | 2.0 | 14.0 | 0.00 | 0.00 | 0.00 | 65 | 1012.1 |
| 20260503205030 | 66 | 238 | 3.0 | 13.0 | 0.00 | 0.00 | 0.00 | 65 | 1011.9 |
| 20260503203525 | 66 | 267 | 3.0 | 10.0 | 0.00 | 0.00 | 0.00 | 66 | 1012.0 |
| 20260503202021 | 65 | 304 | 2.0 | 14.0 | 0.00 | 0.00 | 0.00 | 68 | 1012.1 |
| 20260503200548 | 66 | 317 | 5.0 | 12.0 | 0.00 | 0.00 | 0.00 | 67 | 1012.4 |
| 20260503195023 | 65 | 287 | 3.0 | 12.0 | 0.00 | 0.00 | 0.00 | 69 | 1012.5 |
| 20260503193523 | 65 | 268 | 5.0 | 13.0 | 0.00 | 0.00 | 0.00 | 68 | 1012.5 |
| 20260503192020 | 65 | 238 | 5.0 | 14.0 | 0.00 | 0.00 | 0.00 | 68 | 1012.6 |
| 20260503190518 | 66 | 280 | 4.0 | 13.0 | 0.00 | 0.00 | 0.00 | 67 | 1012.4 |
| 20260503185014 | 67 | 271 | 3.0 | 9.0 | 0.00 | 0.00 | 0.00 | 65 | 1012.4 |
| 20260503183531 | 66 | 279 | 1.0 | 9.0 | 0.00 | 0.00 | 0.00 | 67 | 1012.4 |
| 20260503182029 | 67 | 240 | 1.0 | 5.0 | 0.00 | 0.00 | 0.00 | 66 | 1012.4 |
| 20260503180540 | 67 | 253 | 0.0 | 0.0 | 0.00 | 0.00 | 0.00 | 67 | 1012.5 |
| 20260503175032 | 66 | 258 | 0.0 | 6.0 | 0.00 | 0.00 | 0.00 | 68 | 1012.5 |
| 20260503173529 | 65 | 264 | 0.0 | 0.0 | 0.00 | 0.00 | 0.00 | 70 | 1012.7 |
| 20260503172022 | 64 | 327 | 0.0 | 0.0 | 0.00 | 0.00 | 0.00 | 72 | 1012.7 |
| 20260503170534 | 63 | 360 | 0.0 | 0.0 | 0.00 | 0.00 | 0.00 | 74 | 1012.7 |